Powrót do katalogu

RSW-02

AktywnyMilitariaPO
NORAD 49114·PAYLOAD·🇨🇳 China

Wystrzelony Aug 24, 2021 z Jiuquan Satellite Launch Center

Loading…

Następne Przeloty (najbliższe 24 godziny)

TLE

ŚwieżeSource: Space-Track

Epoka: Sep 14, 2026, 14:29 UTC

1 49114U 21076C   26257.60373043 -.00000068  00000-0 -14768-3 0  9998
2 49114  86.4078 125.8859 0018774 166.6977 193.4666 13.42858845247883

Śledź RSW-02 w czasie rzeczywistym z AllMySat

Download on the App Store